Time,TemperatureF,DewpointF,PressureIn,WindDirection,WindDirectionDegrees,WindSpeedMPH,WindSpeedGustMPH,Humidity,HourlyPrecipIn,Conditions,Clouds,dailyrainin,SoftwareType,DateUTC
2013-01-24 00:08:00,17.7,15.0,25.88,WSW,237,15.0,23.0,87,0.00,,,0.00,weatherlink.com 1.10,2013-01-24 07:08:00,
2013-01-24 00:23:00,17.1,14.0,25.88,SSW,194,12.0,16.0,88,0.00,,,0.00,weatherlink.com 1.10,2013-01-24 07:23:00,
2013-01-24 00:39:00,16.8,14.0,25.88,South,184,7.0,17.0,88,0.00,,,0.00,weatherlink.com 1.10,2013-01-24 07:39:00,
2013-01-24 00:54:00,16.8,14.0,25.87,SSW,212,12.0,20.0,88,0.00,,,0.00,weatherlink.com 1.10,2013-01-24 07:54:00,
2013-01-24 01:09:00,16.9,14.0,25.86,SSW,212,13.0,19.0,88,0.00,,,0.00,weatherlink.com 1.10,2013-01-24 08:09:00,
2013-01-24 01:24:00,16.8,14.0,25.86,SW,230,16.0,19.0,88,0.00,,,0.00,weatherlink.com 1.10,2013-01-24 08:24:00,
2013-01-24 01:39:00,16.6,14.0,25.85,SW,214,14.0,19.0,88,0.00,,,0.00,weatherlink.com 1.10,2013-01-24 08:39:00,
2013-01-24 01:54:00,16.8,14.0,25.85,SSW,201,8.0,17.0,88,0.00,,,0.00,weatherlink.com 1.10,2013-01-24 08:54:00,
2013-01-24 02:09:00,16.5,14.0,25.85,SW,214,15.0,17.0,89,0.00,,,0.00,weatherlink.com 1.10,2013-01-24 09:09:00,
2013-01-24 02:24:00,16.5,14.0,25.84,SSW,201,17.0,21.0,89,0.00,,,0.00,weatherlink.com 1.10,2013-01-24 09:24:00,
2013-01-24 02:39:00,16.7,14.0,25.83,SW,215,15.0,20.0,89,0.00,,,0.00,weatherlink.com 1.10,2013-01-24 09:39:00,
2013-01-24 02:54:00,16.8,14.0,25.82,SW,232,12.0,19.0,90,0.00,,,0.00,weatherlink.com 1.10,2013-01-24 09:54:00,
2013-01-24 03:09:00,17.0,15.0,25.82,South,184,12.0,14.0,91,0.00,,,0.00,weatherlink.com 1.10,2013-01-24 10:09:00,
2013-01-24 03:24:00,19.0,17.0,25.81,SSW,200,16.0,24.0,92,0.00,,,0.00,weatherlink.com 1.10,2013-01-24 10:24:00,
2013-01-24 03:39:00,20.0,18.0,25.79,SW,218,15.0,23.0,91,0.00,,,0.00,weatherlink.com 1.10,2013-01-24 10:39:00,
2013-01-24 03:54:00,20.5,18.0,25.79,SW,218,13.0,25.0,90,0.00,,,0.00,weatherlink.com 1.10,2013-01-24 10:54:00,
2013-01-24 04:09:00,20.6,18.0,25.78,SW,224,17.0,25.0,90,0.00,,,0.00,weatherlink.com 1.10,2013-01-24 11:09:00,
2013-01-24 04:24:00,20.5,18.0,25.78,SSW,212,15.0,22.0,90,0.00,,,0.00,weatherlink.com 1.10,2013-01-24 11:24:00,
2013-01-24 04:39:00,20.6,18.0,25.77,South,188,17.0,25.0,90,0.00,,,0.00,weatherlink.com 1.10,2013-01-24 11:39:00,
2013-01-24 04:54:00,20.8,18.0,25.77,SSW,210,16.0,23.0,90,0.00,,,0.00,weatherlink.com 1.10,2013-01-24 11:54:00,
2013-01-24 05:09:00,20.7,18.0,25.75,SSW,207,19.0,23.0,90,0.00,,,0.00,weatherlink.com 1.10,2013-01-24 12:09:00,
2013-01-24 05:24:00,20.7,18.0,25.76,SSE,163,9.0,19.0,90,0.00,,,0.00,weatherlink.com 1.10,2013-01-24 12:24:00,
2013-01-24 05:39:00,20.5,18.0,25.76,SSW,212,11.0,14.0,90,0.00,,,0.00,weatherlink.com 1.10,2013-01-24 12:39:00,
2013-01-24 05:54:00,20.6,18.0,25.76,SSW,200,11.0,15.0,89,0.00,,,0.00,weatherlink.com 1.10,2013-01-24 12:54:00,
2013-01-24 06:09:00,19.8,17.0,25.76,SSW,200,8.0,12.0,89,0.00,,,0.00,weatherlink.com 1.10,2013-01-24 13:09:00,
2013-01-24 06:24:00,19.2,17.0,25.75,South,190,11.0,14.0,90,0.00,,,0.00,weatherlink.com 1.10,2013-01-24 13:24:00,
2013-01-24 06:39:00,18.8,16.0,25.75,SW,225,14.0,15.0,90,0.00,,,0.00,weatherlink.com 1.10,2013-01-24 13:39:00,
2013-01-24 06:54:00,18.8,17.0,25.75,SSW,209,11.0,16.0,91,0.00,,,0.00,weatherlink.com 1.10,2013-01-24 13:54:00,
2013-01-24 07:09:00,19.0,17.0,25.76,SSE,155,10.0,15.0,91,0.00,,,0.00,weatherlink.com 1.10,2013-01-24 14:09:00,
2013-01-24 07:25:00,19.9,18.0,25.75,SSW,210,9.0,13.0,91,0.00,,,0.00,weatherlink.com 1.10,2013-01-24 14:25:00,
2013-01-24 07:39:00,20.7,18.0,25.75,WNW,297,3.0,15.0,90,0.00,,,0.00,weatherlink.com 1.10,2013-01-24 14:39:00,
2013-01-24 07:54:00,21.5,19.0,25.75,WNW,290,10.0,14.0,90,0.00,,,0.00,weatherlink.com 1.10,2013-01-24 14:54:00,
2013-01-24 08:09:00,22.6,20.0,25.74,WSW,238,11.0,16.0,89,0.00,,,0.00,weatherlink.com 1.10,2013-01-24 15:09:00,
2013-01-24 08:25:00,24.0,21.0,25.73,WSW,256,13.0,15.0,87,0.00,,,0.00,weatherlink.com 1.10,2013-01-24 15:25:00,
2013-01-24 08:40:00,25.3,21.0,25.73,WSW,256,6.0,12.0,85,0.00,,,0.00,weatherlink.com 1.10,2013-01-24 15:40:00,
2013-01-24 08:55:00,26.3,22.0,25.73,SW,231,7.0,12.0,84,0.00,,,0.00,weatherlink.com 1.10,2013-01-24 15:55:00,
2013-01-24 09:10:00,27.6,23.0,25.73,WNW,300,7.0,11.0,82,0.00,,,0.00,weatherlink.com 1.10,2013-01-24 16:10:00,
2013-01-24 09:25:00,29.1,24.0,25.73,WSW,240,8.0,11.0,80,0.00,,,0.00,weatherlink.com 1.10,2013-01-24 16:25:00,
2013-01-24 09:40:00,30.4,24.0,25.73,SSW,209,3.0,10.0,78,0.00,,,0.00,weatherlink.com 1.10,2013-01-24 16:40:00,
2013-01-24 09:55:00,32.6,26.0,25.73,WSW,253,5.0,5.0,76,0.00,,,0.00,weatherlink.com 1.10,2013-01-24 16:55:00,
2013-01-24 10:10:00,39.9,24.0,25.73,West,264,8.0,12.0,54,0.00,,,0.00,weatherlink.com 1.10,2013-01-24 17:10:00,
2013-01-24 10:25:00,42.1,23.0,25.72,West,259,8.0,13.0,47,0.00,,,0.00,weatherlink.com 1.10,2013-01-24 17:25:00,
2013-01-24 10:40:00,43.0,23.0,25.71,West,261,9.0,12.0,45,0.00,,,0.00,weatherlink.com 1.10,2013-01-24 17:40:00,
2013-01-24 10:55:00,46.5,21.0,25.71,WNW,291,13.0,20.0,36,0.00,,,0.00,weatherlink.com 1.10,2013-01-24 17:55:00,
2013-01-24 11:10:00,48.7,20.0,25.70,West,270,15.0,19.0,32,0.00,,,0.00,weatherlink.com 1.10,2013-01-24 18:10:00,
2013-01-24 11:25:00,50.0,20.0,25.69,West,278,11.0,19.0,31,0.00,,,0.00,weatherlink.com 1.10,2013-01-24 18:25:00,
2013-01-24 11:40:00,50.8,20.0,25.69,WNW,291,14.0,20.0,30,0.00,,,0.00,weatherlink.com 1.10,2013-01-24 18:40:00,
2013-01-24 11:55:00,52.0,21.0,25.68,West,278,9.0,18.0,30,0.00,,,0.00,weatherlink.com 1.10,2013-01-24 18:55:00,
2013-01-24 12:11:00,54.7,22.0,25.67,WNW,282,16.0,24.0,28,0.00,,,0.00,weatherlink.com 1.10,2013-01-24 19:11:00,
2013-01-24 12:26:00,56.4,23.0,25.66,West,273,24.0,25.0,27,0.00,,,0.00,weatherlink.com 1.10,2013-01-24 19:26:00,
2013-01-24 12:41:00,58.0,23.0,25.66,WNW,283,17.0,30.0,26,0.00,,,0.00,weatherlink.com 1.10,2013-01-24 19:41:00,
2013-01-24 12:56:00,58.8,24.0,25.65,NW,309,19.0,31.0,26,0.00,,,0.00,weatherlink.com 1.10,2013-01-24 19:56:00,
2013-01-24 13:11:00,58.4,23.0,25.65,WNW,297,16.0,32.0,26,0.00,,,0.00,weatherlink.com 1.10,2013-01-24 20:11:00,
2013-01-24 13:26:00,57.8,24.0,25.65,WNW,302,18.0,29.0,27,0.00,,,0.00,weatherlink.com 1.10,2013-01-24 20:26:00,
2013-01-24 13:56:00,57.9,24.0,25.65,WNW,288,23.0,29.0,27,0.00,,,0.00,weatherlink.com 1.10,2013-01-24 20:56:00,
2013-01-24 14:11:00,57.8,25.0,25.65,WNW,302,16.0,24.0,28,0.00,,,0.00,weatherlink.com 1.10,2013-01-24 21:11:00,
2013-01-24 14:26:00,58.0,25.0,25.66,WNW,299,21.0,25.0,28,0.00,,,0.00,weatherlink.com 1.10,2013-01-24 21:26:00,
2013-01-24 14:41:00,57.7,25.0,25.66,WNW,297,18.0,21.0,29,0.00,,,0.00,weatherlink.com 1.10,2013-01-24 21:41:00,
2013-01-24 14:56:00,57.4,26.0,25.67,WNW,293,14.0,26.0,30,0.00,,,0.00,weatherlink.com 1.10,2013-01-24 21:56:00,
2013-01-24 15:11:00,57.2,27.0,25.68,NW,310,15.0,21.0,31,0.00,,,0.00,weatherlink.com 1.10,2013-01-24 22:11:00,
2013-01-24 15:26:00,57.6,27.0,25.68,WNW,299,8.0,19.0,31,0.00,,,0.00,weatherlink.com 1.10,2013-01-24 22:26:00,
2013-01-24 15:41:00,57.3,27.0,25.69,NW,307,9.0,17.0,32,0.00,,,0.00,weatherlink.com 1.10,2013-01-24 22:41:00,
2013-01-24 15:56:00,56.2,29.0,25.69,ENE,58,12.0,18.0,35,0.00,,,0.00,weatherlink.com 1.10,2013-01-24 22:56:00,
2013-01-24 16:11:00,54.7,29.0,25.70,West,269,8.0,16.0,37,0.00,,,0.00,weatherlink.com 1.10,2013-01-24 23:11:00,
2013-01-24 16:26:00,53.9,29.0,25.70,NNE,15,18.0,23.0,39,0.00,,,0.00,weatherlink.com 1.10,2013-01-24 23:26:00,
2013-01-24 16:41:00,52.6,26.0,25.72,North,358,6.0,15.0,36,0.00,,,0.00,weatherlink.com 1.10,2013-01-24 23:41:00,
2013-01-24 16:56:00,49.9,24.0,25.73,ENE,63,11.0,15.0,36,0.00,,,0.00,weatherlink.com 1.10,2013-01-24 23:56:00,
2013-01-24 17:11:00,48.3,22.0,25.73,NNW,345,10.0,12.0,36,0.00,,,0.00,weatherlink.com 1.10,2013-01-25 00:11:00,
2013-01-24 17:26:00,48.1,21.0,25.75,NNE,18,7.0,13.0,35,0.00,,,0.00,weatherlink.com 1.10,2013-01-25 00:26:00,
2013-01-24 17:41:00,47.1,21.0,25.76,NW,325,4.0,11.0,36,0.00,,,0.00,weatherlink.com 1.10,2013-01-25 00:41:00,
2013-01-24 17:56:00,46.6,21.0,25.77,North,349,4.0,9.0,36,0.00,,,0.00,weatherlink.com 1.10,2013-01-25 00:56:00,
2013-01-24 18:11:00,44.7,20.0,25.77,North,8,6.0,7.0,38,0.00,,,0.00,weatherlink.com 1.10,2013-01-25 01:11:00,
2013-01-24 18:26:00,43.6,20.0,25.78,NE,34,2.0,5.0,39,0.00,,,0.00,weatherlink.com 1.10,2013-01-25 01:26:00,
2013-01-24 18:41:00,43.1,20.0,25.78,North,359,3.0,5.0,40,0.00,,,0.00,weatherlink.com 1.10,2013-01-25 01:41:00,
2013-01-24 18:56:00,43.1,21.0,25.78,NNW,344,4.0,6.0,41,0.00,,,0.00,weatherlink.com 1.10,2013-01-25 01:56:00,
2013-01-24 19:11:00,42.6,21.0,25.78,NNW,341,3.0,6.0,42,0.00,,,0.00,weatherlink.com 1.10,2013-01-25 02:11:00,
2013-01-24 19:26:00,41.0,21.0,25.80,North,360,6.0,7.0,45,0.00,,,0.00,weatherlink.com 1.10,2013-01-25 02:26:00,
2013-01-24 19:41:00,41.5,21.0,25.79,North,355,2.0,6.0,44,0.00,,,0.00,weatherlink.com 1.10,2013-01-25 02:41:00,
2013-01-24 19:56:00,41.0,21.0,25.80,NNW,336,2.0,4.0,45,0.00,,,0.00,weatherlink.com 1.10,2013-01-25 02:56:00,
2013-01-24 20:11:00,41.2,22.0,25.81,NNE,30,2.0,4.0,46,0.00,,,0.00,weatherlink.com 1.10,2013-01-25 03:11:00,
2013-01-24 20:26:00,40.9,21.0,25.82,North,349,2.0,3.0,46,0.00,,,0.00,weatherlink.com 1.10,2013-01-25 03:26:00,
2013-01-24 20:41:00,40.3,21.0,25.82,NE,49,2.0,3.0,46,0.00,,,0.00,weatherlink.com 1.10,2013-01-25 03:41:00,
2013-01-24 20:56:00,40.5,21.0,25.83,NE,39,0.0,3.0,46,0.00,,,0.00,weatherlink.com 1.10,2013-01-25 03:56:00,
2013-01-24 21:11:00,39.2,20.0,25.83,NE,36,1.0,2.0,47,0.00,,,0.00,weatherlink.com 1.10,2013-01-25 04:11:00,
2013-01-24 21:26:00,37.3,20.0,25.83,NE,41,2.0,3.0,49,0.00,,,0.00,weatherlink.com 1.10,2013-01-25 04:26:00,
2013-01-24 21:41:00,37.3,21.0,25.83,NNE,27,1.0,2.0,51,0.00,,,0.00,weatherlink.com 1.10,2013-01-25 04:41:00,
2013-01-24 21:56:00,34.6,19.0,25.84,NNE,33,1.0,3.0,54,0.00,,,0.00,weatherlink.com 1.10,2013-01-25 04:56:00,
2013-01-24 22:11:00,34.9,20.0,25.85,NNE,29,4.0,6.0,56,0.00,,,0.00,weatherlink.com 1.10,2013-01-25 05:11:00,
2013-01-24 22:26:00,33.1,19.0,25.86,NNE,30,1.0,2.0,57,0.00,,,0.00,weatherlink.com 1.10,2013-01-25 05:26:00,
2013-01-24 22:41:00,30.1,18.0,25.86,NNE,30,2.0,2.0,60,0.00,,,0.00,weatherlink.com 1.10,2013-01-25 05:41:00,
2013-01-24 22:56:00,29.9,19.0,25.86,NNE,30,2.0,2.0,64,0.00,,,0.00,weatherlink.com 1.10,2013-01-25 05:56:00,
2013-01-24 23:11:00,28.9,18.0,25.86,NNE,12,0.0,1.0,63,0.00,,,0.00,weatherlink.com 1.10,2013-01-25 06:11:00,
2013-01-24 23:26:00,28.8,18.0,25.87,NNE,31,0.0,2.0,65,0.00,,,0.00,weatherlink.com 1.10,2013-01-25 06:26:00,
2013-01-24 23:41:00,27.8,18.0,25.86,NNE,23,0.0,1.0,67,0.00,,,0.00,weatherlink.com 1.10,2013-01-25 06:41:00,
2013-01-24 23:56:00,29.5,20.0,25.86,North,360,1.0,2.0,68,0.00,,,0.00,weatherlink.com 1.10,2013-01-25 06:56:00,